When you browse on this site, cookies collect data to enhance your experience and personalize the content and advertising you see.
Visit our Privacy Policy to learn more. By continuing to use the site, you agree to this use of cookies and data.
  • In Österreich
  • Länderverzeichnis
  • Für 7 Tage
  • Wassertemperatur
  • Satellitenkarten
  • Wetterkarte
  • News
  • Widgets
  • user-avatar
    Anmelden

    Stündliche Wetter Naschawar

    Heute, 19 Juni, Mittwoch

    Zeit Temperatur Niederschläge Wind Luftdruck Luftfeuchtigkeit
    00:00 +31°C° 0.1 mm 3 m/S 723 mmHg 40%
    01:00 +31°C° 0.1 mm 3 m/S 722 mmHg 43%
    02:00 +30°C° 0.1 mm 2 m/S 722 mmHg 46%
    03:00 +29°C° 0 mm 2 m/S 722 mmHg 47%
    04:00 +29°C° 0 mm 2 m/S 723 mmHg 49%
    05:00 +28°C° 0 mm 1 m/S 723 mmHg 51%
    06:00 +29°C° 0 mm 1 m/S 723 mmHg 48%
    07:00 +30°C° 0 mm 1 m/S 723 mmHg 46%
    08:00 +31°C° 0 mm 1 m/S 723 mmHg 44%
    09:00 +32°C° 0 mm 1 m/S 723 mmHg 40%
    10:00 +34°C° 0 mm 1 m/S 723 mmHg 37%
    11:00 +35°C° 0 mm 1 m/S 723 mmHg 34%
    12:00 +37°C° 0 mm 1 m/S 723 mmHg 31%
    13:00 +39°C° 0 mm 1 m/S 722 mmHg 28%
    14:00 +40°C° 0 mm 2 m/S 722 mmHg 25%
    15:00 +40°C° 0 mm 2 m/S 721 mmHg 23%
    16:00 +41°C° 0 mm 2 m/S 721 mmHg 22%
    17:00 +41°C° 0 mm 2 m/S 721 mmHg 20%
    18:00 +40°C° 0 mm 2 m/S 721 mmHg 22%
    19:00 +39°C° 0 mm 2 m/S 721 mmHg 24%
    20:00 +39°C° 0 mm 2 m/S 722 mmHg 25%
    21:00 +37°C° 0.1 mm 1 m/S 722 mmHg 27%
    22:00 +36°C° 0.1 mm 1 m/S 722 mmHg 29%
    23:00 +35°C° 0.1 mm 1 m/S 722 mmHg 31%

    Morgen, 20 Juni, Donnerstag

    Zeit Temperatur Niederschläge Wind Luftdruck Luftfeuchtigkeit
    00:00 +34°C° 0.3 mm 1 m/S 722 mmHg 33%
    01:00 +33°C° 0.3 mm 1 m/S 722 mmHg 36%
    02:00 +34°C° 0.3 mm 2 m/S 722 mmHg 38%
    03:00 +32°C° 0.2 mm 2 m/S 722 mmHg 40%
    04:00 +31°C° 0.2 mm 1 m/S 722 mmHg 42%
    05:00 +31°C° 0.2 mm 1 m/S 722 mmHg 43%
    06:00 +31°C° 0.4 mm 1 m/S 722 mmHg 41%
    07:00 +32°C° 0.4 mm 1 m/S 723 mmHg 39%
    08:00 +33°C° 0.4 mm 1 m/S 723 mmHg 37%
    09:00 +34°C° 0.2 mm 1 m/S 723 mmHg 35%
    10:00 +35°C° 0.2 mm 1 m/S 723 mmHg 33%
    11:00 +38°C° 0.2 mm 2 m/S 724 mmHg 31%
    12:00 +39°C° 0 mm 2 m/S 723 mmHg 29%
    13:00 +40°C° 0 mm 2 m/S 723 mmHg 27%
    14:00 +41°C° 0 mm 2 m/S 722 mmHg 25%
    15:00 +42°C° 0 mm 3 m/S 722 mmHg 24%
    16:00 +42°C° 0 mm 4 m/S 722 mmHg 24%
    17:00 +42°C° 0 mm 5 m/S 722 mmHg 24%
    18:00 +39°C° 0.6 mm 5 m/S 722 mmHg 32%
    19:00 +35°C° 0.6 mm 5 m/S 723 mmHg 41%
    20:00 +32°C° 0.6 mm 4 m/S 723 mmHg 49%
    21:00 +31°C° 0 mm 3 m/S 723 mmHg 49%
    22:00 +31°C° 0 mm 2 m/S 724 mmHg 49%
    23:00 +30°C° 0 mm 1 m/S 724 mmHg 49%

    übermorgen, 21 Juni, Freitag

    Zeit Temperatur Niederschläge Wind Luftdruck Luftfeuchtigkeit
    00:00 +30°C° 0 mm 1 m/S 724 mmHg 48%
    01:00 +30°C° 0 mm 1 m/S 724 mmHg 48%
    02:00 +30°C° 0 mm 1 m/S 724 mmHg 48%
    03:00 +30°C° 0 mm 1 m/S 724 mmHg 48%
    04:00 +30°C° 0 mm 1 m/S 724 mmHg 48%
    05:00 +29°C° 0 mm 1 m/S 724 mmHg 48%
    06:00 +31°C° 0.1 mm 1 m/S 724 mmHg 44%
    07:00 +32°C° 0.1 mm 1 m/S 725 mmHg 41%
    08:00 +33°C° 0.1 mm 1 m/S 725 mmHg 37%
    09:00 +34°C° 0.2 mm 1 m/S 725 mmHg 34%
    10:00 +35°C° 0.2 mm 1 m/S 725 mmHg 31%
    11:00 +36°C° 0.2 mm 1 m/S 725 mmHg 28%
    12:00 +37°C° 0 mm 1 m/S 725 mmHg 26%
    13:00 +40°C° 0 mm 2 m/S 724 mmHg 25%
    14:00 +41°C° 0 mm 2 m/S 724 mmHg 23%
    15:00 +41°C° 0 mm 2 m/S 723 mmHg 22%
    16:00 +41°C° 0 mm 2 m/S 723 mmHg 22%
    17:00 +42°C° 0 mm 2 m/S 723 mmHg 22%
    18:00 +42°C° 0.1 mm 3 m/S 723 mmHg 24%
    19:00 +40°C° 0.1 mm 3 m/S 723 mmHg 25%
    20:00 +39°C° 0.1 mm 3 m/S 723 mmHg 27%
    21:00 +38°C° 0 mm 2 m/S 723 mmHg 29%
    22:00 +36°C° 0 mm 1 m/S 723 mmHg 30%
    23:00 +36°C° 0 mm 1 m/S 723 mmHg 32%

    22 Juni, Samstag

    Zeit Temperatur Niederschläge Wind Luftdruck Luftfeuchtigkeit
    00:00 +35°C° 0 mm 1 m/S 723 mmHg 33%
    01:00 +35°C° 0 mm 1 m/S 723 mmHg 34%
    02:00 +34°C° 0 mm 1 m/S 722 mmHg 35%
    03:00 +34°C° 0 mm 1 m/S 722 mmHg 36%
    04:00 +33°C° 0 mm 1 m/S 722 mmHg 37%
    05:00 +33°C° 0 mm 1 m/S 722 mmHg 38%
    06:00 +34°C° 0.1 mm 1 m/S 722 mmHg 35%
    07:00 +35°C° 0.1 mm 1 m/S 723 mmHg 33%
    08:00 +36°C° 0.1 mm 1 m/S 723 mmHg 30%
    09:00 +37°C° 0 mm 1 m/S 723 mmHg 28%
    10:00 +40°C° 0 mm 1 m/S 723 mmHg 26%
    11:00 +41°C° 0 mm 1 m/S 723 mmHg 24%
    12:00 +42°C° 0 mm 2 m/S 723 mmHg 22%
    13:00 +43°C° 0 mm 2 m/S 723 mmHg 21%
    14:00 +45°C° 0 mm 3 m/S 722 mmHg 19%
    15:00 +44°C° 0 mm 3 m/S 722 mmHg 21%
    16:00 +45°C° 0 mm 3 m/S 722 mmHg 20%
    17:00 +45°C° 0 mm 3 m/S 722 mmHg 19%
    18:00 +40°C° 0.4 mm 3 m/S 722 mmHg 28%
    19:00 +37°C° 0.4 mm 3 m/S 722 mmHg 36%
    20:00 +34°C° 0.4 mm 3 m/S 722 mmHg 45%
    21:00 +34°C° 0.1 mm 2 m/S 722 mmHg 44%
    22:00 +34°C° 0.1 mm 2 m/S 723 mmHg 43%
    23:00 +33°C° 0.1 mm 1 m/S 723 mmHg 43%

    23 Juni, Sonntag

    Zeit Temperatur Niederschläge Wind Luftdruck Luftfeuchtigkeit
    00:00 +32°C° 0.1 mm 1 m/S 723 mmHg 42%
    01:00 +32°C° 0.1 mm 1 m/S 723 mmHg 42%
    02:00 +32°C° 0.1 mm 1 m/S 722 mmHg 42%
    03:00 +32°C° 0.1 mm 1 m/S 722 mmHg 44%
    04:00 +31°C° 0.1 mm 1 m/S 722 mmHg 45%
    05:00 +29°C° 0.1 mm 0 m/S 723 mmHg 47%
    06:00 +30°C° 0 mm 0 m/S 723 mmHg 44%
    07:00 +33°C° 0 mm 1 m/S 723 mmHg 40%
    08:00 +34°C° 0 mm 1 m/S 724 mmHg 37%
    09:00 +35°C° 0 mm 1 m/S 724 mmHg 34%
    10:00 +36°C° 0 mm 1 m/S 724 mmHg 31%
    11:00 +39°C° 0 mm 2 m/S 724 mmHg 27%
    12:00 +40°C° 0 mm 2 m/S 723 mmHg 26%
    13:00 +41°C° 0 mm 2 m/S 723 mmHg 24%
    14:00 +42°C° 0 mm 2 m/S 723 mmHg 22%
    15:00 +42°C° 0.1 mm 2 m/S 722 mmHg 22%
    16:00 +42°C° 0.1 mm 2 m/S 722 mmHg 22%
    17:00 +42°C° 0.1 mm 1 m/S 721 mmHg 22%
    18:00 +41°C° 0.1 mm 2 m/S 721 mmHg 24%
    19:00 +40°C° 0.1 mm 2 m/S 722 mmHg 26%
    20:00 +39°C° 0.1 mm 2 m/S 722 mmHg 28%
    21:00 +39°C° 0 mm 1 m/S 722 mmHg 28%
    22:00 +37°C° 0 mm 1 m/S 722 mmHg 29%
    23:00 +37°C° 0 mm 1 m/S 722 mmHg 30%

    24 Juni, Montag

    Zeit Temperatur Niederschläge Wind Luftdruck Luftfeuchtigkeit
    00:00 +36°C° 0.2 mm 1 m/S 722 mmHg 32%
    01:00 +35°C° 0.2 mm 1 m/S 722 mmHg 34%
    02:00 +35°C° 0.2 mm 1 m/S 722 mmHg 36%
    03:00 +34°C° 0.3 mm 1 m/S 722 mmHg 38%
    04:00 +33°C° 0.3 mm 1 m/S 722 mmHg 40%
    05:00 +33°C° 0.3 mm 1 m/S 722 mmHg 42%
    06:00 +33°C° 0.3 mm 1 m/S 722 mmHg 40%
    07:00 +34°C° 0.3 mm 1 m/S 722 mmHg 37%
    08:00 +35°C° 0.3 mm 1 m/S 723 mmHg 35%
    09:00 +36°C° 0 mm 1 m/S 723 mmHg 32%
    10:00 +37°C° 0 mm 1 m/S 723 mmHg 29%
    11:00 +40°C° 0 mm 1 m/S 723 mmHg 27%
    12:00 +41°C° 0 mm 1 m/S 722 mmHg 25%
    13:00 +42°C° 0 mm 1 m/S 722 mmHg 23%
    14:00 +43°C° 0 mm 2 m/S 721 mmHg 21%
    15:00 +43°C° 0 mm 2 m/S 721 mmHg 20%
    16:00 +43°C° 0 mm 2 m/S 721 mmHg 20%
    17:00 +43°C° 0 mm 2 m/S 721 mmHg 20%
    18:00 +42°C° 0 mm 2 m/S 721 mmHg 22%
    19:00 +41°C° 0 mm 2 m/S 721 mmHg 24%
    20:00 +40°C° 0 mm 2 m/S 721 mmHg 26%
    21:00 +39°C° 0.1 mm 2 m/S 721 mmHg 27%
    22:00 +39°C° 0.1 mm 2 m/S 721 mmHg 28%
    23:00 +38°C° 0.1 mm 2 m/S 722 mmHg 29%
    Mehr zeigen